User: anonymous   Login
Location: Arrakis Observatory
(44.1122°N, 95.7153°W)
Time: 18:54:30
(UTC-05:00)
Language:

Iridium 35 - Orbit

View from above orbital plane
View from above orbital plane
View from above satellite
View from above satellite

Ground track
Ground track

The orbit data is extracted from the following two-line orbital elements,

1 24966U 97056B   15090.51805539  .00000238  00000-0  78019-4 0  9997
2 24966 086.3927 296.7160 0002067 089.5605 270.5828 14.34216407916621
Epoch (UTC): 31 March 2015 12:25:59
Eccentricity: 0.0002067
inclination: 86.3927°
perigee height: 776 km
apogee height: 779 km
right ascension of ascending node: 296.7160°
argument of perigee: 89.5605°
revolutions per day: 14.34216407
mean anomaly at epoch: 270.5828°
orbit number at epoch: 91662

The dashed part of the orbit path shows where the satellite is in the earth's shadow,  

DLR